Tracking 19475 objects as of 18-Jan-2019
HD Live streaming from Space Station
objects crossing your sky now

ABS-7 (KOREASAT 3)

Track ABS-7 (KOREASAT 3) now!
ABS-7 (KOREASAT 3) is classified as:


NORAD ID: 25894
Int'l Code: 1999-046A
Perigee: 35,784.4 km
Apogee: 35,804.4 km
Inclination: 0.0 °
Period: 1,436.1 minutes
Semi major axis: 42165 km
RCS: 31.6227 m2 (large)
Launch date: September 4, 1999
Source: South Korea (SKOR)
Launch site: FRENCH GUIANA (FRGUI)

30 Ku-band, 6 Ka-band; Korean peninsula, the Japanese archipelago, and parts of China and Russia.
aabbcc
Your satellite tracking list
Your tracking list is empty




NASA's NSSDC Master Catalog

Two Line Element Set (TLE):
1 25894U 99046A   19018.50874317 -.00000356  00000-0  00000+0 0  9994
2 25894   0.0204  48.4596 0002370 272.5274  95.9288  1.00269435 70001
Source of the keplerian elements: AFSPC